Regional Weather Roundup
Issued by NWS

Home | Current Version | Previous Version | Graphics & Text | Print | Product List | Glossary On
Versions: 1 2 3 4 5 6 7 8 9 10 11 12 13 14 15 16 17 18 19 20 21 22 23 24 25 26 27 28 29 30 31 32 33 34 35 36 37 38 39 40 41 42 43 44 45 46 47 48 49 50
000
ASUS43 KBIS 270710
RWRND

NORTH DAKOTA REGIONAL WEATHER ROUNDUP
NATIONAL WEATHER SERVICE BISMARCK ND
100 AM CST THU NOV 27 2014

NOTE: "FAIR" INDICATES FEW OR NO CLOUDS BELOW 12,000 FEET WITH NO
SIGNIFICANT WEATHER AND/OR OBSTRUCTIONS TO VISIBILITY.


NDZ001>003-009>011-017-270800-
NORTHWEST NORTH DAKOTA

CITY           SKY/WX    TMP DP  RH WIND       PRES   REMARKS
WILLISTON      MOCLDY     8   4  83 SE3       30.33F
MINOT          MOCLDY   -17 -23  73 CALM      30.41F
MINOT AFB      CLOUDY   -22 -28  74 S3        30.42F
$$

NDZ018>021-031>035-040>046-270800-
SOUTHWEST NORTH DAKOTA

CITY           SKY/WX    TMP DP  RH WIND       PRES   REMARKS
BISMARCK       MOCLDY   -11 -15  82 NE7       30.46F WCI -26
DICKINSON      CLOUDY    14  11  87 S14       30.27F WCI  -1
GARRISON         N/A     -1  -4  87 E8        30.39F WCI -15
HETTINGER ARPT CLOUDY    10   7  87 SE8       30.32S WCI  -2
$$

NDZ004>008-012>016-024-026-027-054-270800-
NORTHEAST NORTH DAKOTA

CITY           SKY/WX    TMP DP  RH WIND       PRES   REMARKS
GRAND FORKS    PTCLDY   -14 -18  82 W3        30.57S
GRND FRKS AFB  PTCLDY   -14 -19  77 W1        30.55F
DEVILS LAKE    PTCLDY    -9 -22  54 CALM      30.44F
$$

NDZ022-023-025-028>030-036>039-047>053-270800-
SOUTHEAST NORTH DAKOTA

CITY           SKY/WX    TMP DP  RH WIND       PRES   REMARKS
FARGO          PTCLDY   -11 -19  68 CALM      30.57S
JAMESTOWN      MOCLDY   -22 -24  90 CALM      30.48S
$$




USA.gov is the U.S. government's official web portal to all federal, state and local government web resources and services.